Weather in Turkmenbashi

Turkmenistan     40°00′54″N   52°58′58″E
temp.,
°C
wind,
m/s
gust,
m/s
humid.,
%
clouds,
%
prec.,
mm/h
press.,
hPa
HPBL,
m
20 april, tue
tue2023:00+17nw235252 0.0 101592
02:00+17n015399 0.0 101511
05:00+17nne3352100 0.0 101517
08:00+18e224894 0.0 101519
11:00+21se444087 0.0 1016284
14:00+21sse334096 0.0 1015309
17:00+20sw32435 0.0 1013266
20:00+21se2241100 0.0 1012122
21 april, wed
wed2123:00+23e2238100 0.0 101217
02:00+22e4438100 0.0 101129
05:00+21e584299 0.0 101191
08:00+20e694597 0.0 1012165
11:00+23ese78365 0.0 1013275
14:00+25se35335 0.0 1013313
17:00+24s47365 0.0 1013374
20:00+25ese1435100 0.0 1012134
22 april, thu
thu2223:00+21nnw784799 0.0 1015135
02:00+17nnw6861100 0.0 1016142
05:00+21ene3533100 0.0 101596
08:00+19s1345100 0.1 1016129
11:00+19wsw4546100 0.1 1018276
14:00+23ese363352 0.0 1016376
17:00+26sse1230100 0.0 1015927
20:00+25nnw663138 0.0 1014249
23 april, fri
fri2323:00+21n3340100 0.0 1016114
02:00+19n3348100 0.0 101446
05:00+19s2255100 0.0 101458
08:00+17se476895 0.0 1015192
11:00+16s4477100 0.0 1015280
14:00+20nw235895 0.0 1015396
17:00+19nnw10105698 0.0 1015436
20:00+15nnw121365100 0.0 1017450
24 april, sat
sat2423:00+14nnw121572100 0.3 1019487
02:00+13nnw91279100 0.6 1020478
05:00+13nnw71080100 0.6 1020418
08:00+13nnw34770 0.0 1021345
11:00+16nw33610 0.0 1020417
14:00+18wnw54510 0.0 1019734
17:00+20nw76420 0.0 1018697
20:00+19nnw77430 0.0 1019299